Location: Peebles
(55.6412°N, 3.1714°W)
Time: 23:11:06
(UTC+01:00)

USA 238 DEB - Pass Details

Date: 20 January 2022
Orbit: 969 x 1243 km, 63.4° (Epoch: 04 May)

Event Time Altitude Azimuth Distance (km) Brightness Sun altitude
Rises 20:03:51 0° 262° (W) 3,751 7.6 -30.4°
Reaches altitude 10° 20:06:29 10° 268° (W) 2,834 6.8 -30.8°
Maximum altitude 20:13:00 51° 344° (NNW) 1,339 4.2 -31.7°
Enters shadow 20:13:55 48° 8° (N) 1,393 4.2 -31.8°
